Regional Weather Roundup
Issued by NWS San Diego, CA

Home | Current Version | Previous Version | Text Only | Print | Product List | Glossary On
Versions: 1 2 3 4 5 6 7 8 9 10 11 12 13 14 15 16 17 18 19 20 21 22 23 24 25 26 27 28 29 30 31 32 33 34 35 36 37 38 39 40 41 42 43 44 45 46 47 48 49 50
000
ASUS46 KSGX 221204
RWRSGX

SAN DIEGO HOURLY WEATHER ROUNDUP
NATIONAL WEATHER SERVICE SAN DIEGO CA
500 AM PDT SUN OCT 22 2017

NOTE: "FAIR" INDICATES FEW OR NO CLOUDS BELOW 12,000 FEET WITH NO
SIGNIFICANT WEATHER AND/OR OBSTRUCTIONS TO VISIBILITY.

CAZ042-043-060-061-PZZ750-775-221300-

GREATER SAN DIEGO AREA

CITY           SKY/WX    TMP DP  RH WIND       PRES   REMARKS
SAN DIEGO AP   CLEAR     60  52  74 NW3       30.08S
NATIONAL CITY    N/A     57  52  82 CALM      30.09S
CHULA VISTA      N/A     56  48  73 CALM      29.99S
IMPERIAL BEACH CLEAR     60  53  77 E9        30.07S
BROWN FIELD    CLEAR     58  37  45 E6        30.07S
MIRAMAR MCAS   CLEAR     63  40  42 NE12      30.07R
MONTGOMERY FLD CLEAR     64  42  44 N5        30.07S
GILLESPIE FLD  FAIR      54  46  76 NW3       30.08S

$$

NORTH SAN DIEGO COUNTY

CITY           SKY/WX    TMP DP  RH WIND       PRES   REMARKS
CAMP PENDLETON CLEAR     50  46  86 CALM      30.07S
OCEANSIDE AP   CLEAR     56  41  57 N6        30.06S
OCEANSIDE HBR    N/A     58  49  71 CALM      30.08F
VISTA            N/A     63  37  38 CALM      30.05R
CARLSBAD       CLEAR     61  38  42 E3        30.06S
DEL MAR          N/A     62  43  49 CALM      30.08S
LA JOLLA SCRIP   N/A     65  47  51 CALM      30.06S
FALLBROOK        N/A     68  33  26 E8        30.09S
ESCONDIDO        N/A     56  44  63 W2        30.09S
SAN MARCOS       N/A     61  38  42 CALM      30.10R
POWAY            N/A     50  43  75 CALM      30.11R

$$

EAST SAN DIEGO COUNTY

CITY           SKY/WX    TMP DP  RH WIND       PRES   REMARKS
RAMONA         CLEAR     52  29  41 S6        30.10F
SANTEE LAKES     N/A     51  46  82 CALM      30.07S
LA MESA          N/A     63  41  44 CALM      30.01R
JAMUL            N/A     55  33  42 CALM      30.08S
DESCANSO N       N/A     69  21  16 NW3       30.07F
CAMPO            N/A     58  19  22 NE8       30.13S

$$

ORANGE COUNTY AND THE LOS ANGELES BASIN

CITY           SKY/WX    TMP DP  RH WIND       PRES   REMARKS
JOHN WAYNE AP  CLEAR     59  50  72 CALM      30.06S
LAGUNA BEACH     N/A     53  44  72 CALM      30.01S
LAKE FOREST FR   N/A     70  22  16 CALM      29.95S
HUNTINGTON BCH   N/A     53  50  90 CALM      30.08S
LOS ALAMITOS   FAIR      56  47  72 NW3       30.06S
FULLERTON      CLEAR     57  47  69 CALM      30.06S
LONG BEACH     CLEAR     63  46  54 NW6       30.07S
L.A. AP        CLEAR     63  36  36 CALM      30.08S
L.A. DOWNTOWN  CLEAR     67  32  27 CALM      30.08S

$$

THE INLAND EMPIRE

CITY           SKY/WX    TMP DP  RH WIND       PRES   REMARKS
CHINO          CLEAR     56  44  64 CALM      30.12S
ONTARIO        CLEAR     58  39  49 CALM      30.11S
SAN BERNARDINO FAIR      55  28  34 CALM      30.14S
RIVERSIDE AP   CLEAR     60  32  34 NE7       30.12R
MORENO VALLEY    N/A     63  31  30 CALM      28.26R
MARCH ARB      CLEAR     47  27  45 CALM      30.14S
HORSETHIEF CYN   N/A     68  16  13 NE3       30.12F
PERRIS           N/A     58  34  40 CALM        N/A
HEMET EAST       N/A     58  52  82 CALM      29.96S
FRENCH VALLEY  FAIR      54  32  43 N3        30.14S
TEMECULA         N/A     53  43  71 NW2       30.19S

$$

SAN BERNARDINO AND RIVERSIDE COUNTY MOUNTAINS

CITY           SKY/WX    TMP DP  RH WIND       PRES   REMARKS
BIG BEAR AP    CLEAR     32  16  51 CALM      30.41S

$$

SOUTHERN DESERT INCLUDING THE COACHELLA VALLEY

CITY           SKY/WX    TMP DP  RH WIND       PRES   REMARKS
PALM SPRINGS   CLEAR     66  27  23 NW8       30.14S
THOUSAND PALMS   N/A     63  21  20 N1        30.10R
PALM DESERT      N/A     61  33  34 CALM      31.04S
THERMAL        CLEAR     63  25  23 N7        30.09R
BLYTHE         CLEAR     60  16  18 SW3       30.14R
IMPERIAL AP    CLEAR     56  31  38 W5        30.10R
EL CENTRO NAS  CLEAR     57  22  25 W9        30.12R

$$

UPPER DESERT

CITY           SKY/WX    TMP DP  RH WIND       PRES   REMARKS
VICTORVILLE AP CLEAR     45  18  33 CALM      30.27S
HESPERIA         N/A     49  20  32 SW2       30.39S
PALMDALE       CLEAR     49  27  42 CALM      30.28R
LANCASTER      CLEAR     42  23  46 CALM      30.28R
DAGGETT        NOT AVBL
29 PALMS N     CLEAR     60  12  15 NW10      30.30S
NEEDLES        CLEAR     66  14  13 N9        30.17S

$$

REGIONAL REPORTS

CITY           SKY/WX    TMP DP  RH WIND       PRES   REMARKS
SANTA BARBARA  CLEAR     49  43  80 CALM      30.10R
SANDBERG       CLEAR     60  19  20 NE15      30.31S
LAS VEGAS NV   CLEAR     58  19  22 W6        30.26R
PHOENIX AZ     PTCLDY    63  30  28 S3        30.11R
TIJUANA        CLEAR     57  50  77 CALM      30.10
ENSENADA NW      N/A     69  32  25 CALM      30.02S

$$

OFFSHORE ISLANDS

CITY           SKY/WX    TMP DP  RH WIND       PRES   REMARKS
CATALINA ARPT  CLEAR     72  27  18 NE7       30.13S
SAN NICOLAS IS CLEAR     63  22  20 NW10      30.09S

$$

MARINE AND OFFSHORE BUOY REPORTS

STATION/POSITION SKY/WX   TEMP    WIND        PRES    VSBY  SWELL
                          AIR SEA DIR/SP/G                  HT/PER/DIR
                          (F)     (DEG/KT/KT) (MB)    (MI)  (FT/S/D)
TANNER BANKS               64 64  330/ 10/ 12 1018.1         10/320/15
S CLEMENTE BASIN           70 69  360/  6/  8 1018.1          7/310/15
SAN NICOLAS IS.               62                N/A           8/300/13
SO. S. ROSA ISLA           61 60  320/ 16/ 19 1018.6         10/310/15
W. S. BARBARA CH           59 56  320/ 14/ 16 1019.0F
M. S. BARBARA CH           62     240/  8/ 10 1019.7F         5/250/14
S. MONICA BASIN                   340/  8/ 10 1018.1R         5/260/12
S PEDRO CHANNEL               66                N/A           3/260/13
CMP PENDLETON NS              67                N/A           2/210/20
OCEANSIDE OFFSHR              69                N/A           2/180/20
TORREY PINES OTR              68                N/A           3/280/13
SAN DIEGO BAY                 73              1018.5
POINT LOMA SOUTH              69                N/A           5/280/14

$$





USA.gov is the U.S. government's official web portal to all federal, state and local government web resources and services.